Location: Zagreb
(45.8000°N, 16.0000°E)
Time: 19:29:21
(UTC+02:00)

Tiros 1 despin weight - Pass Details

Date: 17 August 2022
Orbit: 591 x 638 km, 48.2° (Epoch: 06 October)

Event Time Altitude Azimuth Distance (km) Brightness Sun altitude
Rises 14:34:34 0° 283° (WNW) 2,853 ? 51.9°
Reaches altitude 10° 14:36:54 10° 286° (WNW) 1,942 ? 51.6°
Maximum altitude 14:41:20 71° 10° (N) 631 ? 51.1°
Drops below altitude 10° 14:45:44 10° 95° (E) 1,920 ? 50.6°
Sets 14:48:01 0° 98° (E) 2,817 ? 50.3°
